Date,TemperatureHighF,TemperatureAvgF,TemperatureLowF,DewpointHighF,DewpointAvgF,DewpointLowF,HumidityHigh,HumidityAvg,HumidityLow,PressureMaxIn,PressureMinIn,WindSpeedMaxMPH,WindSpeedAvgMPH,GustSpeedMaxMPH,PrecipitationSumIn
2013-1-1,21.7,3.6,-11.2,1.3,-12.1,-24.1,59,48,24,30.04,29.89,5,1,8,0.00
2013-1-2,30.2,17.6,7.7,6.8,2.3,-4.3,66,52,24,29.89,29.78,6,2,9,0.00
2013-1-3,27.9,18.8,7.9,14.3,7.8,-4.2,68,62,54,29.98,29.80,5,2,9,0.00
2013-1-4,38.1,18.6,7.5,16.6,5.7,-3.9,69,58,32,29.94,29.81,6,1,11,0.00
2013-1-5,37.9,22.9,5.7,25.4,12.5,-4.0,73,64,49,29.96,29.63,7,2,8,0.00
2013-1-6,36.1,21.1,5.2,19.0,9.8,-5.1,68,61,48,30.01,29.64,7,2,11,0.00
2013-1-7,43.7,26.1,4.8,22.6,13.2,-5.1,71,58,40,29.98,29.57,8,2,15,0.00
2013-1-8,44.2,29.0,11.5,28.1,18.3,4.0,75,65,47,29.82,29.63,7,2,9,0.00
2013-1-9,48.0,32.7,18.7,28.0,19.6,10.1,73,60,33,30.18,29.63,6,2,11,0.00
2013-1-10,18.9,17.9,16.9,10.4,9.6,8.7,70,69,69,30.22,30.17,0,0,1,0.00
2013-1-18,46.9,29.5,6.8,27.9,17.0,-4.2,72,60,47,30.12,29.54,17,3,17,0.00
2013-1-19,55.0,34.7,10.4,31.1,20.7,-9.7,80,59,23,29.77,29.40,15,4,15,0.00
2013-1-20,17.4,9.1,4.5,-10.0,-13.2,-17.1,45,36,22,30.05,29.80,10,4,10,0.00
2013-1-21,8.4,0.1,-6.5,-10.0,-20.8,-27.9,51,36,24,30.02,29.87,12,4,12,0.00
2013-1-22,10.8,-1.7,-13.2,-14.6,-22.2,-29.2,48,37,21,30.08,30.01,6,1,6,0.00
2013-1-23,19.4,10.0,-0.8,4.6,-5.8,-19.8,58,48,38,30.21,29.80,11,3,11,0.00
2013-1-24,12.9,7.7,-5.1,-3.5,-10.6,-21.3,49,42,29,30.38,30.05,5,2,5,0.00
2013-1-25,25.7,17.5,10.4,9.9,3.5,-5.0,68,54,41,30.06,29.68,6,2,11,0.00
2013-1-26,32.5,16.0,-0.2,6.2,-2.3,-12.8,61,45,24,30.15,29.98,7,2,50,0.00
2013-1-27,31.5,27.7,23.4,27.5,17.0,5.7,85,65,46,30.03,29.58,6,2,11,0.00
2013-1-28,39.6,33.1,28.9,32.5,28.0,24.4,85,81,71,29.70,29.49,1,0,4,0.00
2013-1-29,48.6,37.8,33.4,45.9,34.8,29.0,93,89,81,29.52,29.26,17,1,97,0.01
2013-1-30,33.4,24.9,12.9,30.6,19.9,4.1,90,81,67,29.39,29.14,2,0,2,0.01
2013-1-31,18.5,7.9,-2.2,4.2,-5.3,-16.1,70,54,38,30.97,29.39,0,0,0,0.00
2013-2-1,15.6,-0.1,-12.8,-7.8,-17.0,-26.0,60,45,21,30.03,29.84,0,0,0,0.00
2013-2-2,25.0,7.2,-1.3,-2.3,-7.8,-13.8,61,51,24,29.86,29.72,0,0,0,0.00
2013-2-3,28.8,12.2,-0.4,2.6,-2.7,-12.6,67,52,26,29.76,29.66,0,0,0,0.00
2013-2-4,32.2,14.1,0.9,5.2,-1.7,-12.5,66,51,21,29.74,29.64,0,0,0,0.00
2013-2-5,30.2,18.7,-2.2,19.6,8.4,-13.5,75,63,57,29.84,29.47,0,0,0,0.00
2013-2-6,31.5,16.6,-6.5,20.8,5.5,-17.3,75,61,46,29.93,29.76,4,1,6,0.00
2013-2-7,34.3,29.8,23.7,29.4,24.8,16.7,84,81,74,29.89,29.70,0,0,1,0.00
2013-2-8,42.1,20.6,1.9,16.7,7.8,-7.6,74,59,29,30.11,29.89,0,0,0,0.00
2013-2-9,29.7,18.7,-1.7,19.7,9.8,-12.7,76,68,58,30.10,29.78,0,0,0,0.00
2013-2-10,40.8,32.8,23.7,38.5,28.4,17.8,93,84,72,29.78,29.10,9,2,12,0.00
2013-2-11,38.3,30.3,23.9,36.2,21.8,13.0,92,71,58,29.74,29.09,9,1,10,0.00
2013-2-12,37.8,23.9,15.4,19.4,11.8,7.8,72,60,42,29.81,29.57,6,0,8,0.00
2013-2-13,54.7,29.1,10.9,26.5,17.0,3.8,80,62,29,29.58,29.38,4,1,6,0.00
2013-2-14,37.2,31.8,22.1,29.7,21.7,7.6,85,67,45,29.79,29.30,9,2,14,0.00
2013-2-15,34.9,17.7,6.4,7.5,-2.8,-10.0,63,41,21,29.96,29.79,7,3,14,0.00
2013-2-16,25.9,10.3,-5.6,-2.1,-10.0,-18.9,56,41,21,29.95,29.87,8,2,13,0.00
2013-2-17,34.0,12.0,-12.1,11.8,-7.2,-26.8,56,43,21,29.92,29.61,7,2,9,0.00
2013-2-18,52.9,34.1,21.6,29.8,21.1,11.1,74,59,41,29.61,29.25,9,4,14,0.00
2013-2-19,21.4,11.9,5.2,11.5,-4.4,-13.7,69,48,31,29.95,29.34,11,6,18,0.00
2013-2-20,35.1,14.2,2.3,1.2,-6.1,-13.9,57,41,22,30.12,29.94,6,2,12,0.00
2013-2-21,24.1,14.4,-2.6,17.4,2.9,-15.0,78,60,44,30.17,29.80,6,2,9,0.00
2013-2-22,33.6,26.1,21.6,23.3,17.9,15.4,77,71,61,29.80,29.54,6,1,8,0.00
2013-2-23,39.4,26.6,14.5,18.9,13.4,4.7,70,58,38,29.70,29.58,5,2,8,0.00
2013-2-24,54.5,24.5,3.7,22.5,9.6,-6.3,70,55,22,29.88,29.70,5,1,8,0.00
2013-2-25,45.7,30.0,16.5,24.0,17.2,8.2,74,60,38,29.89,29.78,4,0,5,0.00
2013-2-26,40.5,30.0,20.7,23.7,19.8,14.3,79,66,49,29.80,29.47,10,4,18,0.00
2013-2-27,36.0,31.4,27.9,26.8,23.7,20.4,82,73,61,29.60,29.44,6,4,12,0.00
2013-2-28,34.9,31.1,26.1,24.7,19.9,11.2,78,63,49,29.89,29.59,8,3,11,0.00
2013-3-1,41.2,24.4,8.4,16.5,8.7,-2.3,64,52,29,30.00,29.89,6,2,10,0.00
2013-3-2,40.3,17.1,1.8,8.5,-2.9,-9.5,65,44,19,30.02,29.90,6,1,10,0.00
2013-3-3,47.3,18.9,-1.8,10.4,-2.5,-14.6,61,42,19,29.91,29.80,3,0,6,0.00
2013-3-4,34.0,23.0,9.3,18.4,8.9,-2.8,63,54,42,29.85,29.76,6,2,12,0.00
2013-3-5,30.7,26.5,22.6,22.5,18.2,14.2,78,70,61,29.89,29.67,4,1,11,0.00
2013-3-6,35.6,24.9,7.0,20.0,14.1,-3.4,75,63,50,30.07,29.89,5,1,9,0.00
2013-3-7,51.1,21.6,-1.1,19.0,5.4,-12.2,71,52,24,30.15,30.06,3,0,5,0.00
2013-3-8,48.7,28.0,8.1,22.4,13.7,-2.2,71,56,34,30.17,29.97,6,2,9,0.00
2013-3-9,41.9,36.0,31.8,32.6,27.0,18.5,85,70,56,29.98,29.52,8,3,11,0.01
2013-3-10,39.6,35.5,32.5,36.6,31.3,28.3,89,85,80,29.58,29.41,6,2,11,0.00
2013-3-11,34.3,31.5,27.3,28.8,26.4,19.2,86,81,71,29.53,29.34,4,0,8,0.00
2013-3-12,37.6,28.1,22.1,19.8,16.0,9.5,74,61,43,29.80,29.52,6,1,11,0.00
2013-3-13,43.2,25.1,16.2,11.1,4.8,-1.6,65,45,20,30.06,29.80,8,2,11,0.00
2013-3-14,46.0,25.4,9.9,25.3,14.0,-0.5,74,62,42,30.04,29.78,7,1,9,0.00
2013-3-15,38.1,31.0,24.3,30.6,24.4,17.4,82,76,65,29.78,29.57,4,0,7,0.00
2013-3-16,38.8,26.0,19.6,21.7,13.2,7.4,77,59,34,29.90,29.58,6,1,12,0.00
2013-3-17,39.0,22.9,8.1,11.6,4.5,-5.3,62,46,25,30.02,29.75,6,3,10,0.00
2013-3-18,36.5,22.8,11.1,26.4,13.0,1.3,76,66,52,29.75,29.32,2,0,4,0.00
2013-3-19,38.3,20.9,11.1,5.4,-1.1,-8.0,57,40,20,29.80,29.45,9,2,17,0.00
2013-3-20,29.7,14.7,4.1,-2.1,-9.1,-14.8,51,34,20,29.83,29.77,9,4,16,0.00
2013-3-21,41.4,16.6,-2.4,6.1,-4.6,-15.0,60,41,19,29.82,29.75,6,2,11,0.00
2013-3-22,9.3,7.1,5.2,-4.0,-5.4,-6.6,57,56,53,29.80,29.79,0,0,0,0.00
2013-3-31,47.8,38.1,30.4,36.6,27.8,12.0,93,68,39,29.70,29.50,14,3,14,0.00
2013-4-1,41.0,29.5,22.6,14.0,6.3,0.0,52,38,21,29.94,29.70,12,3,12,0.00
2013-4-2,44.1,30.9,18.0,12.0,7.8,3.5,65,40,21,30.08,29.94,8,2,8,0.00
2013-4-3,51.3,33.1,13.8,18.2,10.1,4.5,68,43,19,30.19,30.00,8,1,8,0.00
2013-4-4,59.2,42.3,28.8,33.5,23.1,14.5,70,48,30,29.98,29.73,8,2,8,0.00
2013-4-5,51.4,37.7,22.5,26.5,20.4,15.7,79,53,25,30.00,29.84,8,2,8,0.00
2013-4-6,60.6,50.4,33.8,47.2,36.7,13.6,89,61,41,29.87,29.31,9,4,12,0.00
2013-4-7,56.3,42.7,34.3,37.4,31.4,25.9,82,66,41,29.74,29.40,7,2,12,0.00
2013-4-8,60.6,44.2,37.8,43.0,35.5,30.2,84,72,51,29.78,29.47,5,2,8,0.01
2013-4-9,39.4,37.7,33.3,37.0,34.0,28.5,92,86,78,29.86,29.68,5,2,10,0.00
2013-4-10,34.9,33.1,31.6,30.3,29.0,27.9,87,85,76,29.92,29.66,5,1,8,0.01
2013-4-11,37.6,34.8,33.1,34.4,30.3,27.1,88,84,75,29.70,29.37,10,3,14,0.02
2013-4-12,39.6,34.3,32.5,33.5,29.3,26.7,88,82,73,29.55,29.31,5,0,8,0.00
2013-4-13,40.8,34.1,27.3,27.9,24.1,19.0,81,67,53,29.75,29.53,6,1,15,0.00
2013-4-14,47.1,35.2,26.4,38.6,29.4,19.1,84,79,68,29.76,29.36,8,2,13,0.00
2013-4-15,59.5,45.9,33.4,46.0,33.0,24.5,91,64,32,29.76,29.38,11,2,16,0.00
2013-4-16,55.8,40.2,28.4,30.4,25.9,22.4,81,59,32,30.09,29.75,7,2,10,0.00
2013-4-17,41.5,36.8,28.9,36.3,30.9,22.5,90,79,65,30.10,29.64,6,2,9,0.01
2013-4-18,46.6,41.6,37.4,44.4,39.0,31.9,93,90,82,29.64,29.08,6,2,14,0.00
2013-4-19,40.3,34.5,28.6,31.8,24.2,15.7,83,66,47,29.70,29.10,12,4,50,0.00
2013-4-20,51.1,34.9,21.4,23.3,12.8,5.1,76,45,19,30.12,27.01,7,2,12,0.00
2013-4-21,52.9,39.8,24.1,35.1,26.3,12.9,83,59,40,30.22,29.95,9,4,14,0.00
2013-4-22,69.6,54.2,42.6,41.3,37.5,34.0,83,55,32,29.97,29.74,8,3,12,0.00
2013-4-23,57.6,41.9,34.2,45.6,32.5,22.7,90,70,53,29.80,29.67,9,3,15,0.00
2013-4-24,59.7,42.4,27.7,35.5,22.8,14.3,87,51,21,29.81,29.73,7,2,13,0.01
2013-4-25,56.5,42.5,28.9,37.3,30.1,22.0,87,64,33,30.03,29.73,7,2,12,0.00
2013-4-26,76.3,55.7,28.8,46.0,36.2,21.9,80,51,28,30.01,29.86,12,4,17,0.00
2013-4-27,72.7,57.9,41.7,50.2,45.1,38.3,93,65,41,29.98,29.78,7,2,11,0.00
2013-4-28,80.2,56.8,34.7,49.0,40.1,26.3,99,61,22,29.79,29.56,6,1,8,0.00
2013-4-29,77.4,59.1,48.2,58.6,50.9,41.3,93,75,43,29.63,29.46,8,2,11,0.01
2013-4-30,91.8,73.1,60.3,61.2,56.1,46.7,98,61,25,29.71,29.39,11,4,16,0.01
2013-5-1,79.9,61.2,45.9,49.8,45.2,36.0,87,59,30,30.06,29.71,10,4,17,0.00
2013-5-2,45.7,40.6,34.9,38.4,34.2,29.7,94,78,69,30.14,30.03,9,4,13,0.01
2013-5-3,43.3,38.1,32.9,42.8,36.9,29.5,99,96,81,30.04,29.82,5,2,9,0.00
2013-5-4,78.6,56.8,43.3,56.2,48.4,42.8,99,77,45,29.86,29.79,5,1,8,0.00
2013-5-5,81.9,59.8,40.1,52.7,45.4,39.8,99,66,29,29.88,29.80,5,1,8,0.00
2013-5-6,84.6,61.3,38.5,53.0,40.9,34.6,99,57,19,29.89,29.78,5,1,12,0.00
2013-5-7,87.3,63.1,38.3,50.2,39.4,31.5,97,52,15,29.87,29.77,6,1,9,0.00
2013-5-8,86.9,64.5,41.4,53.3,42.6,35.4,96,54,19,29.83,29.74,4,1,6,0.00
2013-5-9,64.0,56.4,48.0,59.1,53.1,47.6,99,89,71,29.77,29.69,8,1,10,0.71
2013-5-10,58.3,47.6,41.5,48.0,43.9,41.2,99,88,65,29.81,29.71,12,2,99,0.34
2013-5-11,58.3,48.5,41.9,50.1,35.8,22.1,99,66,27,29.85,29.59,11,4,22,0.02
2013-5-12,61.0,45.2,29.8,29.4,22.9,13.7,76,46,19,29.92,29.84,7,3,14,0.00
2013-5-13,70.7,50.4,24.8,35.9,26.6,19.2,90,47,15,29.95,29.63,6,2,9,0.00
2013-5-14,94.5,75.7,54.1,59.2,48.2,35.5,72,41,21,29.64,29.31,9,3,15,0.00
2013-5-15,82.8,69.6,51.1,57.8,43.3,35.0,80,42,20,29.67,29.36,8,3,13,0.00
2013-5-16,92.7,67.6,44.1,54.3,46.2,39.0,98,54,19,29.79,29.65,4,2,10,0.00
2013-5-17,62.1,54.9,48.6,54.7,47.0,34.7,99,77,40,29.91,29.77,5,2,8,0.56
2013-5-18,83.7,65.6,48.2,65.0,57.1,47.6,99,76,51,29.86,29.71,4,1,7,0.01
2013-5-19,90.0,72.1,55.0,66.3,60.6,54.2,99,71,41,29.73,29.44,8,2,11,0.00
2013-5-20,86.9,71.7,60.1,65.6,61.1,58.0,99,73,42,29.58,29.40,8,2,14,0.47
2013-5-21,82.4,68.6,57.9,63.0,58.8,54.8,96,73,42,29.51,29.38,6,2,10,0.00
2013-5-22,69.3,59.6,52.9,62.7,57.3,52.0,98,92,73,29.64,29.43,4,1,8,0.59
2013-5-23,70.9,54.9,38.7,52.1,43.4,28.8,99,72,24,30.11,29.64,6,2,10,0.15
2013-5-24,72.0,51.2,30.4,44.6,36.8,-13.3,99,65,25,30.25,30.08,4,1,6,0.01
2013-5-25,63.9,54.1,44.4,45.8,41.9,37.4,89,66,40,30.17,30.07,4,1,6,0.02
2013-5-26,69.1,54.0,40.3,54.4,45.0,37.7,98,75,33,30.11,29.94,5,1,8,0.08
2013-5-27,57.4,53.4,50.9,54.4,49.7,42.3,99,88,68,29.95,29.68,4,2,8,0.18
2013-5-28,65.5,56.5,50.9,60.9,54.9,50.6,99,95,83,29.69,29.51,2,0,3,0.06
2013-5-29,92.5,70.9,58.1,67.3,62.2,2.0,99,78,41,29.70,29.57,8,2,11,0.54
2013-5-30,87.8,70.7,61.5,73.6,66.0,59.6,99,86,52,29.68,29.47,7,2,12,0.38
2013-5-31,84.4,70.2,61.3,65.4,60.8,57.6,92,74,46,29.56,29.46,7,3,11,0.00
2013-6-1,84.9,67.4,51.3,64.3,56.7,50.4,98,71,39,29.54,29.42,5,2,10,0.12
2013-6-2,67.6,54.7,41.0,57.4,43.3,39.8,97,68,42,29.84,29.54,5,2,12,0.00
2013-6-3,79.3,56.7,34.2,55.4,42.9,33.4,99,67,24,29.89,29.80,4,1,7,0.00
2013-6-4,65.8,54.3,47.5,60.0,51.7,45.6,99,91,72,29.98,29.86,2,0,4,0.24
2013-6-5,59.7,54.0,49.8,58.3,52.9,49.6,99,96,91,29.94,29.75,3,0,4,0.28
2013-6-6,60.3,55.1,51.1,56.6,53.0,50.8,99,93,82,29.79,29.72,1,0,4,0.13
2013-6-7,78.3,60.0,49.8,57.8,52.6,49.6,99,80,41,29.81,29.72,4,0,6,0.00
2013-6-8,75.0,60.3,49.5,60.4,53.2,49.2,99,80,44,29.80,29.72,3,0,4,0.00
2013-6-9,81.0,64.2,54.5,65.4,57.9,51.5,98,82,50,29.80,29.62,4,1,7,0.41
2013-6-10,88.7,69.0,54.9,67.4,61.8,54.0,99,81,43,29.67,29.59,4,1,8,0.01
2013-6-11,83.7,68.3,52.2,70.2,62.1,51.6,98,83,51,29.72,29.61,3,1,5,0.00
2013-6-12,82.0,63.4,0.0,69.5,64.4,58.7,99,88,62,29.73,29.47,3,1,6,0.81
2013-6-13,86.2,67.7,56.7,67.0,58.2,53.6,99,76,38,29.88,29.59,13,1,98,0.01
2013-6-14,85.1,66.4,48.0,61.8,56.1,47.8,99,74,38,29.96,29.78,3,1,5,0.00
2013-6-15,84.4,68.0,59.5,69.4,62.4,58.6,99,84,57,29.86,29.67,3,1,8,0.28